RH
30 30 30 28 26 23 24 27 28 27 26 28 34 36 28 29 33 40 40 54 87 89 90 90 93 97 90 94 96 96 97 97 99 98 100 94 92 97
46 41 34 30 25 24 24 41 62 49 53 40 30 32 33 28 26 26 26 33 57 81 96 96 97 93 97 93 88 99 98 99 99 95 91 76 91 98
40 34 30 30 28 25 25 41 39 50 63 56 50 47 49 49 38 35 30 26 26 28 82 98 98 96 96 94 84 96 98 98 87 77 73 95 100 99
36 34 32 28 27 26 33 39 43 54 57 49 56 54 49 45 44 43 50 50 45 46 44 48 72 83 86 86 92 93 90 98 89 75 86 100 100 98
40 37 34 29 26 24 25 27 29 31 31 31 31 34 34 34 33 32 35 39 56 56 52 63 71 85 82 90 94 95 92 88 87 99 100 99 100 99
37 37 37 38 38 40 40 37 36 36 37 38 46 45 38 38 40 48 42 34 41 63 78 72 81 97 99 99 99 95 98 97 99 98 100 100 100 99
50 42 38 36 41 50 56 58 58 56 56 62 65 65 52 44 36 38 55 44 34 39 56 82 89 88 89 98 93 90 99 99 99 100 100 99 99 100
59 58 56 58 57 57 56 50 36 38 53 52 46 35 27 29 43 42 44 38 32 49 61 98 100 96 99 98 87 94 100 100 99 99 99 100 99 100
61 63 62 59 60 59 60 55 37 34 37 30 32 56 70 79 88 90 100 74 81 90 92 96 99 99 95 98 100 99 100 99 99 99 96 97 99 99
29 25 53 63 53 31 53 73 51 50 55 62 70 77 80 79 80 84 98 98 97 99 99 98 88 99 95 89 98 97 96 98 99 99 100 99 99 100
25 24 22 21 20 20 21 67 83 80 72 81 79 80 83 89 86 98 100 98 100 99 99 99 98 98 100 98 99 98 98 99 99 99 100 99 99 99
27 29 30 30 30 28 24 22 19 18 17 16 25 35 18 18 27 29 19 38 56 78 53 59 70 77 95 96 85 94 97 95 95 98 97 97 97 93
18 19 22 23 27 30 32 32 31 29 26 23 21 21 23 26 29 34 47 48 49 45 30 11 8 7 8 9 7 6 6 28 30 7 6 11 9 5
15 16 17 18 19 21 24 26 28 31 31 31 36 45 53 55 53 55 59 69 81 77 89 93 91 47 15 22 40 53 50 25 8 4 4 4 4 4
16 16 16 17 17 18 19 20 23 25 27 30 36 48 59 65 67 64 60 55 47 49 54 21 64 73 64 34 29 36 46 28 17 9 8 4 4 4
25 25 24 24 22 22 21 21 22 22 23 24 26 30 39 47 53 56 54 54 53 44 24 15 13 9 8 12 18 21 16 11 7 6 5 6 7 6
38 40 39 38 36 33 31 29 28 28 28 28 29 32 37 39 49 58 62 62 60 50 38 38 30 31 50 62 27 25 15 17 21 15 11 10 11 10
49 51 51 53 53 53 50 46 45 44 43 39 38 38 41 48 61 70 70 69 63 58 51 50 50 48 23 16 17 17 16 14 13 12 10 9 10 13
59 60 61 64 70 70 67 65 64 60 57 54 51 51 57 61 66 75 79 79 72 66 59 55 47 20 20 17 21 24 19 17 16 17 16 18 16 18
52 63 67 69 83 89 86 85 83 80 74 69 64 66 74 76 74 78 80 71 58 46 31 23 21 19 21 24 26 33 25 23 24 25 25 25 25 24
44 49 60 70 90 98 96 96 96 94 91 81 71 78 82 82 80 84 78 65 47 31 27 26 25 30 32 33 32 32 36 34 34 36 37 34 33 32
40 53 59 68 84 98 98 98 97 96 95 91 87 88 84 88 85 83 79 76 52 32 30 32 35 36 38 37 36 37 41 47 51 51 47 46 43 37
46 52 72 97 100 100 95 94 96 98 98 95 93 90 92 90 88 85 80 49 40 43 38 42 43 45 46 44 42 42 48 53 56 63 66 62 61 61
Wind_Speed
32 33 35 37 38 39 40 41 45 49 51 49 51 52 51 47 47 47 47 48 45 47 48 45 43 47 45 45 49 47 48 50 39 42 45 39 44 46
25 27 28 30 32 33 33 34 34 39 43 43 47 49 50 49 48 50 50 49 47 47 47 47 47 47 45 46 44 46 52 50 41 30 35 40 44 46
17 21 24 26 27 29 30 31 34 34 38 41 43 44 44 45 44 45 48 50 50 50 51 49 49 46 44 45 44 46 48 45 37 37 45 49 50 48
14 16 18 21 22 23 24 27 29 31 35 38 38 39 39 38 39 39 42 45 49 49 50 51 53 51 49 49 49 48 48 47 47 46 45 47 50 48
13 16 17 19 20 22 24 26 28 31 33 37 39 39 41 40 40 40 41 43 43 43 45 46 48 49 52 50 52 52 52 52 52 49 50 52 46 46
11 13 15 17 19 21 23 25 28 31 34 36 38 38 39 40 41 41 41 39 43 43 38 42 45 47 44 50 51 53 53 56 58 51 53 50 47 49
14 15 17 18 19 22 24 25 28 32 34 36 37 36 35 36 38 38 38 38 39 42 41 43 41 45 54 51 50 49 51 53 62 60 56 58 56 51
16 17 18 19 21 23 25 26 26 26 26 29 29 31 33 35 36 37 38 35 36 36 39 35 35 44 49 53 56 57 45 39 40 39 40 51 56 50
15 16 18 19 20 23 24 25 25 25 25 26 28 29 30 29 32 36 28 30 29 32 34 38 38 35 39 35 38 38 35 42 47 54 45 45 48 42
13 15 15 17 19 22 25 25 26 27 28 29 30 32 33 34 33 31 28 32 31 33 31 39 42 42 39 42 37 38 42 45 46 40 39 37 38 43
15 15 16 16 19 20 19 19 21 23 26 29 29 29 29 31 31 33 34 35 34 30 31 34 33 39 38 39 37 36 39 40 42 45 45 44 44 42
18 19 19 19 19 20 21 23 24 25 25 25 25 26 28 28 29 30 28 30 33 32 30 32 31 35 36 31 29 33 32 35 33 31 33 36 36 34
20 20 20 21 21 21 22 22 23 24 24 25 25 25 25 25 25 23 24 26 27 27 27 28 28 28 28 27 28 28 28 28 31 31 34 34 36 38
23 23 23 23 23 23 23 23 24 25 25 24 24 24 24 24 25 26 28 28 29 29 29 29 29 25 24 22 23 26 27 28 28 28 32 34 35 36
25 25 25 25 25 25 25 25 25 25 25 25 25 26 26 27 27 28 28 28 30 31 30 29 25 25 26 26 25 26 26 28 30 31 32 33 34 35
26 25 26 26 26 26 26 26 25 25 25 25 26 26 27 27 27 28 28 29 29 29 30 30 29 27 26 26 28 26 27 27 28 30 31 29 30 32
26 26 26 26 27 26 26 25 25 25 24 25 25 25 25 25 25 25 25 26 26 26 26 29 32 30 29 29 27 26 27 27 30 30 29 29 29 32
26 26 27 27 28 27 26 25 25 25 25 25 25 25 25 25 25 24 24 25 24 24 25 25 25 27 27 27 25 23 24 24 26 28 31 31 27 31
26 28 28 28 28 28 27 26 26 25 26 26 25 25 25 26 26 25 24 24 25 26 25 24 23 21 22 25 25 25 24 25 25 26 27 28 25 25
29 29 29 30 29 28 28 27 27 26 26 26 26 25 26 26 24 23 23 23 23 24 23 23 22 21 21 22 20 21 26 25 25 24 24 24 23 22
32 31 30 30 29 28 28 28 27 27 27 27 26 26 25 25 24 23 22 21 21 21 21 21 19 19 20 21 21 21 22 24 25 25 24 24 23 21
31 31 29 27 26 26 26 27 27 27 27 27 27 25 23 23 23 21 21 21 19 18 17 17 17 18 19 19 20 21 20 20 23 23 24 24 24 23
30 31 30 29 27 27 25 27 28 27 27 27 25 23 22 22 21 21 19 16 16 16 15 16 17 17 18 19 20 20 20 20 20 19 22 22 21 21
Wind_Direction
255 258 259 259 260 262 262 263 264 267 266 269 273 274 274 272 273 273 271 267 268 269 269 269 269 268 270 266 273 270 272 267 264 273 266 269 272 271
244 247 248 253 257 257 258 260 263 266 270 269 268 270 273 272 269 269 270 267 265 264 265 266 266 266 263 268 272 268 267 268 267 271 264 267 267 268
237 241 246 249 251 256 258 259 263 265 269 271 271 272 272 276 275 272 268 267 266 261 258 260 264 263 263 266 272 268 267 261 272 265 266 267 265 268
241 245 249 254 259 262 263 265 267 267 269 275 278 280 283 284 284 280 278 274 270 268 263 259 259 260 261 261 259 261 264 256 263 261 264 267 263 267
251 251 253 258 261 264 267 270 272 273 275 277 280 282 285 285 283 280 276 274 275 274 269 266 262 261 258 258 256 256 259 260 264 267 267 270 259 260
278 275 272 272 274 276 279 280 281 281 282 282 283 285 285 287 286 286 281 274 270 269 272 265 261 258 259 257 258 259 259 262 261 257 261 256 257 255
296 291 288 285 284 285 285 285 286 286 284 283 284 284 286 287 289 290 287 280 273 270 271 272 262 258 261 263 262 259 260 253 253 251 246 253 258 248
307 302 297 296 293 292 296 298 298 295 291 291 292 293 294 293 292 290 288 281 273 272 268 272 274 265 263 258 258 265 255 241 243 255 258 255 251 250
328 321 308 300 297 296 294 294 296 296 293 291 292 292 294 297 294 299 288 284 283 279 280 266 271 281 294 274 258 250 252 261 262 257 265 263 255 255
322 321 318 311 310 313 310 295 296 298 297 294 294 294 294 295 299 299 295 286 283 289 286 287 289 289 289 286 274 275 267 266 261 252 258 259 255 249
317 316 313 309 307 310 312 306 299 300 304 294 291 296 295 295 295 296 294 295 288 282 284 289 285 283 273 268 273 269 258 255 253 250 247 242 241 246
315 315 313 312 310 307 306 306 304 304 305 304 304 301 302 301 298 297 299 296 297 299 297 295 295 288 279 280 285 278 273 265 269 264 262 260 258 261
309 307 304 302 301 303 302 301 301 300 300 300 300 301 302 302 302 303 305 304 300 297 296 294 295 288 289 287 284 283 279 276 277 273 270 269 267 266
306 305 304 304 304 302 301 299 298 297 298 300 301 302 303 305 304 303 302 301 298 296 294 296 288 284 288 285 287 290 288 289 286 282 280 276 272 270
303 303 303 301 301 299 298 297 296 296 297 298 298 299 300 301 302 304 304 303 300 294 289 284 280 285 286 281 281 281 282 282 283 281 279 277 276 275
300 300 299 300 299 297 297 298 298 297 296 296 296 297 297 299 301 302 303 303 303 301 296 290 288 286 282 280 280 278 279 278 277 276 278 279 279 278
296 296 297 297 295 296 296 296 295 295 295 294 294 295 296 298 300 301 301 302 302 301 299 297 293 294 289 287 282 280 278 282 283 282 281 282 284 283
294 294 294 295 295 296 296 295 295 295 294 295 295 297 300 302 302 302 303 306 303 302 299 295 291 291 294 292 288 284 281 280 279 280 280 279 278 279
291 292 293 294 294 295 294 294 294 294 295 294 295 298 301 303 304 303 303 305 303 302 301 299 294 291 290 289 289 291 292 289 287 285 282 280 277 271
289 289 290 291 291 291 291 291 292 292 292 292 293 295 299 301 301 303 302 305 306 305 301 300 299 296 292 289 294 298 297 295 292 287 282 283 287 285
286 285 285 287 288 289 289 289 289 291 291 291 290 294 298 300 299 298 301 303 302 298 296 297 299 301 303 306 305 302 301 301 299 298 294 294 295 295
286 285 286 287 289 288 288 287 287 290 290 290 290 293 296 296 298 300 301 300 296 293 295 300 303 306 308 311 312 312 311 306 303 301 300 301 302 301
285 283 282 284 287 288 287 287 287 289 290 290 290 291 293 294 295 297 297 294 291 293 295 302 307 312 317 320 321 322 321 317 311 306 304 304 304 304